Wind_Speed
51 52 52 53 53 53 53 54 55 54 53 53 54 55 57 58 59 60 59 59 60 60 60 60 59 59 58 58 57 57 57 56 55 55 54 54 52 52
52 52 53 53 54 54 54 54 55 55 55 54 55 56 57 57 58 59 59 59 60 61 62 62 62 62 61 60 60 59 59 58 58 57 57 56 56 55
53 53 53 53 54 54 55 55 56 56 56 55 56 57 57 58 58 59 60 59 61 61 62 63 63 63 63 63 62 62 62 61 61 61 60 59 58 58
54 54 55 55 55 56 56 56 57 57 57 56 56 57 58 58 59 60 60 60 61 62 62 63 64 64 64 64 64 63 64 63 63 63 63 62 62 61
55 56 56 57 57 57 56 55 57 57 58 58 57 58 59 60 60 62 62 61 62 62 63 63 64 64 64 65 65 64 65 65 65 64 64 64 64 64
56 57 57 57 57 56 56 57 57 57 58 59 58 59 59 60 60 62 62 63 62 62 63 63 64 64 64 65 65 65 65 65 66 66 65 65 65 65
55 56 57 57 57 57 57 57 57 57 58 59 59 59 59 60 61 62 63 63 63 62 63 63 63 63 63 63 63 63 64 65 66 65 66 66 66 66
53 54 55 55 56 58 58 58 58 58 59 59 59 60 60 61 62 63 63 62 62 62 62 61 62 62 62 62 62 63 63 64 64 65 65 65 65 65
54 54 55 55 56 57 58 58 58 59 59 60 60 60 61 61 61 62 63 63 62 61 62 61 62 62 62 62 62 62 62 63 63 64 64 65 65 65
53 54 54 55 55 56 56 57 58 58 58 59 59 59 59 60 61 61 61 62 61 61 62 61 60 60 60 59 60 60 61 61 62 62 62 62 62 62
53 54 55 55 56 56 57 57 57 58 58 58 58 58 58 58 59 61 61 62 61 60 61 61 59 59 59 58 58 58 59 60 60 60 60 59 59 59
52 53 54 55 55 56 57 56 56 57 57 57 57 57 58 57 58 59 60 61 61 61 60 60 60 60 59 58 58 58 58 58 59 59 59 60 59 59
51 52 52 53 54 55 55 54 54 55 56 56 56 56 57 56 56 56 56 58 59 59 60 60 60 60 60 59 58 59 59 58 58 59 59 60 60 60
50 50 50 51 51 52 53 53 53 53 53 54 54 54 54 55 54 54 54 55 55 56 58 58 59 59 59 59 58 58 59 59 59 59 59 59 60 60
49 48 48 49 49 50 51 51 52 52 52 52 52 52 52 52 52 52 52 52 52 53 55 56 56 57 58 58 57 57 58 58 59 58 58 58 59 60
46 46 46 47 48 49 49 50 49 49 50 50 50 51 52 52 51 52 52 52 52 53 54 55 55 56 56 56 56 56 56 56 56 57 57 57 58 59
46 46 46 47 47 47 48 48 48 48 48 48 48 48 50 51 51 52 52 52 53 53 53 53 53 53 54 55 54 54 54 53 54 54 55 55 55 55
45 46 46 47 47 46 45 45 46 46 47 47 46 46 47 48 49 50 50 51 52 52 52 52 51 51 52 52 53 52 52 51 51 51 52 51 51 52
44 44 44 44 44 44 44 44 45 45 46 46 46 46 46 47 48 48 49 49 49 50 50 51 51 50 50 50 50 51 50 50 49 49 49 48 48 48
43 43 43 43 43 43 43 43 43 44 44 45 45 45 46 46 46 46 47 47 47 48 48 49 49 49 49 48 48 47 48 48 47 46 46 46 46 46
42 42 42 42 42 42 42 42 42 42 43 43 43 43 44 44 44 44 44 44 44 44 44 44 45 45 44 44 44 44 44 45 45 44 44 44 44 44
41 41 41 40 40 40 40 41 40 40 40 41 41 41 41 41 41 41 41 41 41 41 41 41 42 42 41 41 41 41 41 42 42 42 42 42 41 41
39 39 39 39 38 39 38 38 38 37 38 38 38 39 39 39 39 39 39 39 39 38 38 38 38 39 38 38 38 38 38 39 39 40 40 40 39 40
Wind_Direction
263 264 264 265 265 265 264 264 263 262 262 262 261 261 260 258 258 258 258 258 259 259 259 259 259 258 259 260 260 260 259 260 260 260 261 262 262 262
264 265 266 265 265 266 266 265 264 264 263 261 262 261 260 259 258 258 258 259 259 259 259 259 259 259 259 260 260 260 260 260 260 260 261 261 262 262
265 265 265 265 266 267 267 266 265 264 264 263 262 262 261 259 258 258 258 259 259 260 260 260 259 259 260 260 260 260 261 260 260 261 261 261 261 262
266 265 266 266 267 267 267 266 265 265 264 263 262 262 261 260 260 259 258 259 259 260 260 260 260 260 260 260 260 261 261 261 261 261 261 261 261 262
267 266 266 267 267 268 267 267 266 265 264 264 263 263 262 262 261 260 259 259 260 261 260 260 261 261 261 260 260 261 261 261 261 261 261 261 261 261
267 267 266 266 267 267 267 266 265 264 264 264 263 263 263 263 262 261 260 261 261 261 261 261 261 261 261 261 261 261 262 261 261 261 261 261 261 262
268 267 267 266 266 266 267 267 267 266 265 265 264 264 264 264 264 263 262 262 262 262 261 261 261 261 262 262 261 262 262 261 261 261 261 261 261 262
269 268 267 267 267 267 267 267 267 267 266 266 266 265 265 266 265 265 264 263 262 262 261 261 261 261 262 262 262 262 261 261 261 261 261 261 261 262
270 268 267 267 267 267 267 266 267 267 266 266 266 267 267 267 266 266 265 264 263 262 262 261 261 262 262 262 263 262 261 261 261 261 261 261 262 262
270 270 268 267 267 268 268 267 267 266 267 267 267 268 267 267 266 266 265 264 263 262 262 261 261 261 261 261 261 261 261 261 261 260 261 261 261 261
271 271 269 268 267 268 268 268 267 267 267 268 268 267 267 267 267 266 264 264 263 262 262 262 261 261 261 261 261 262 262 261 261 261 260 260 260 260
271 271 270 269 268 268 268 268 268 268 267 267 267 267 267 267 267 266 265 263 262 262 261 262 262 262 261 261 262 262 262 261 260 260 260 261 261 260
271 271 270 270 270 269 269 269 269 268 267 266 267 267 267 266 267 267 266 264 263 261 260 260 261 262 263 262 261 262 261 260 259 260 260 261 261 261
273 272 273 272 271 271 270 269 269 268 267 267 267 267 266 265 266 266 266 266 265 263 260 261 262 262 262 262 262 261 260 260 260 261 261 261 261 261
274 273 273 273 272 272 271 269 268 268 267 267 267 266 266 266 266 266 266 266 265 264 263 262 263 262 262 262 262 261 261 260 261 261 261 261 261 261
274 274 273 274 273 273 272 270 269 268 267 267 266 266 265 266 266 266 266 265 264 264 263 263 263 263 263 263 263 262 262 261 261 261 261 261 260 261
275 275 274 273 273 273 272 270 269 269 268 267 267 267 267 266 266 267 267 266 265 264 263 262 263 263 262 263 263 263 263 262 261 261 260 260 260 260
276 276 275 275 274 274 273 271 270 269 269 268 268 268 268 268 268 267 268 267 266 265 263 262 263 262 261 262 263 263 262 262 261 260 259 259 259 259
278 276 276 275 274 274 273 272 270 269 268 268 268 268 268 269 269 269 269 268 267 266 265 263 262 262 262 262 261 262 261 261 260 259 258 259 259 259
277 277 276 275 274 273 273 272 270 269 269 268 268 268 268 269 270 270 270 268 267 266 265 264 263 262 262 261 260 260 260 260 258 258 257 257 258 258
277 277 276 275 274 273 273 272 271 271 269 268 268 269 269 270 270 270 269 268 268 267 266 263 261 259 259 259 258 258 258 258 257 256 256 256 257 256
278 277 276 275 273 273 273 273 272 271 270 269 269 270 270 270 269 269 268 268 268 267 264 261 258 257 257 257 257 256 255 255 255 255 255 256 257 257
278 276 275 274 274 274 274 274 273 272 271 270 270 269 270 270 269 269 269 268 268 266 263 260 257 257 255 255 255 255 255 253 253 254 254 255 256 256
Height
5634 5635 5637 5638 5639 5640 5641 5643 5645 5647 5651 5653 5654 5655 5656 5658 5661 5664 5667 5669 5672 5674 5676 5679 5682 5684 5687 5689 5692 5694 5697 5699 5701 5703 5705 5707 5709 5711
5620 5621 5622 5623 5624 5625 5626 5627 5628 5630 5634 5637 5637 5638 5639 5641 5644 5647 5650 5652 5655 5657 5659 5661 5664 5667 5670 5672 5675 5678 5680 5683 5685 5687 5689 5691 5694 5696
5606 5607 5608 5608 5609 5610 5610 5611 5612 5613 5616 5620 5621 5622 5623 5625 5627 5629 5632 5635 5637 5640 5642 5644 5646 5649 5651 5654 5657 5660 5662 5665 5668 5670 5672 5675 5677 5680
5591 5591 5592 5593 5594 5595 5595 5595 5596 5597 5598 5602 5604 5605 5606 5608 5610 5612 5615 5617 5620 5622 5623 5626 5628 5630 5633 5636 5638 5641 5644 5646 5649 5652 5655 5658 5660 5662
5575 5576 5577 5577 5578 5579 5579 5579 5580 5581 5581 5584 5587 5588 5590 5590 5592 5594 5597 5599 5601 5603 5605 5607 5609 5612 5614 5617 5619 5622 5625 5628 5631 5633 5635 5638 5641 5643
5558 5559 5560 5561 5562 5563 5563 5563 5563 5564 5565 5567 5569 5571 5572 5573 5574 5576 5579 5581 5583 5585 5587 5589 5591 5593 5596 5598 5601 5604 5606 5608 5611 5614 5616 5619 5621 5624
5543 5543 5544 5545 5545 5546 5546 5547 5547 5547 5548 5550 5552 5553 5555 5555 5557 5558 5560 5563 5565 5566 5568 5572 5574 5576 5577 5579 5581 5584 5586 5589 5591 5594 5597 5599 5602 5604
5527 5527 5528 5528 5529 5529 5529 5530 5530 5531 5532 5533 5535 5536 5538 5538 5539 5540 5541 5544 5548 5551 5550 5553 5555 5557 5560 5562 5564 5565 5567 5569 5572 5575 5577 5580 5582 5585
5512 5512 5512 5512 5512 5512 5512 5513 5513 5514 5515 5517 5518 5519 5520 5521 5521 5522 5522 5524 5528 5531 5531 5535 5537 5539 5542 5543 5545 5547 5549 5550 5553 5555 5557 5560 5563 5565
5496 5496 5496 5496 5496 5496 5496 5496 5497 5498 5499 5499 5500 5502 5501 5501 5501 5502 5504 5506 5510 5512 5512 5516 5519 5521 5524 5525 5526 5528 5530 5532 5534 5536 5538 5541 5544 5547
5481 5480 5480 5480 5480 5479 5480 5480 5481 5481 5481 5481 5482 5483 5483 5484 5483 5483 5485 5487 5491 5494 5494 5497 5500 5502 5505 5508 5509 5510 5512 5514 5516 5518 5520 5523 5526 5528
5465 5464 5464 5463 5463 5462 5463 5464 5465 5465 5465 5465 5466 5466 5466 5467 5466 5466 5467 5469 5471 5476 5478 5478 5481 5483 5487 5491 5491 5493 5494 5496 5498 5500 5503 5505 5508 5510
5449 5449 5448 5447 5447 5446 5446 5447 5448 5448 5448 5448 5449 5449 5450 5450 5450 5450 5450 5451 5453 5457 5460 5460 5463 5465 5467 5471 5474 5475 5476 5478 5481 5483 5485 5488 5490 5492
5434 5433 5432 5432 5431 5431 5430 5431 5431 5431 5431 5432 5432 5433 5433 5434 5434 5434 5434 5435 5436 5439 5442 5442 5444 5447 5449 5452 5455 5458 5459 5461 5463 5466 5468 5470 5472 5474
5419 5418 5417 5416 5416 5415 5415 5414 5414 5414 5415 5416 5416 5417 5417 5417 5418 5418 5419 5419 5421 5423 5424 5425 5427 5429 5431 5434 5437 5439 5441 5443 5445 5448 5450 5452 5455 5457
5403 5403 5402 5401 5401 5400 5400 5399 5398 5398 5399 5400 5400 5401 5401 5401 5402 5402 5403 5404 5405 5408 5409 5409 5410 5412 5414 5416 5419 5421 5423 5426 5428 5430 5432 5435 5437 5439
5389 5389 5388 5387 5386 5385 5384 5384 5383 5383 5384 5384 5384 5385 5385 5386 5386 5387 5387 5388 5389 5391 5393 5394 5394 5395 5397 5399 5402 5405 5407 5409 5411 5413 5415 5417 5420 5422
5374 5374 5373 5373 5372 5371 5370 5369 5369 5368 5369 5369 5369 5370 5370 5370 5371 5371 5371 5371 5373 5374 5376 5378 5378 5380 5382 5384 5386 5389 5391 5393 5395 5397 5399 5401 5404 5407
5360 5359 5359 5358 5357 5356 5356 5355 5355 5354 5354 5354 5354 5355 5355 5355 5355 5355 5355 5356 5357 5358 5359 5361 5362 5363 5366 5370 5373 5373 5375 5377 5379 5382 5384 5386 5389 5392
5346 5345 5345 5344 5343 5342 5342 5341 5341 5340 5340 5340 5340 5340 5340 5340 5340 5340 5340 5341 5341 5342 5344 5345 5347 5348 5351 5354 5357 5359 5359 5362 5365 5367 5370 5372 5375 5377
5332 5331 5331 5330 5329 5328 5328 5327 5327 5326 5326 5326 5326 5326 5326 5326 5326 5326 5326 5327 5327 5328 5329 5331 5333 5334 5335 5338 5341 5344 5346 5347 5350 5353 5355 5358 5361 5364
5319 5318 5317 5316 5316 5315 5314 5314 5313 5313 5312 5312 5312 5312 5312 5312 5312 5313 5313 5313 5314 5314 5316 5317 5318 5320 5322 5324 5327 5331 5333 5335 5337 5339 5341 5344 5347 5350
5305 5305 5304 5303 5303 5302 5302 5301 5300 5300 5300 5300 5300 5300 5299 5299 5299 5300 5300 5300 5301 5302 5302 5304 5306 5308 5310 5312 5315 5318 5320 5323 5325 5327 5330 5332 5335 5337